GW3941 Weather Reports


Display with metric or nautical units.
time (UTC)temp
F
wind
direction
speed
MPH
gust
MPH
rain 1hr
in
rain 24hr
in
rain mn
in
humidity
%
barometer
mb
20260510142026 58 300 1.0 5.0 0.00 0.28 0.00 96 1014.0
20260510141529 58 299 1.0 4.0 0.00 0.28 0.00 96 1014.0
20260510141021 57 298 1.0 3.0 0.00 0.28 0.00 96 1013.9
20260510140519 57 294 1.0 3.0 0.00 0.28 0.00 96 1014.0
20260510140018 56 294 1.0 3.0 0.00 0.28 0.00 96 1013.9
20260510135520 56 294 0.0 2.0 0.00 0.28 0.00 96 1013.8
20260510135015 55 294 0.0 5.0 0.00 0.28 0.00 96 1013.8
20260510134514 55 294 2.0 5.0 0.00 0.28 0.00 96 1013.9
20260510134012 55 355 0.0 3.0 0.00 0.28 0.00 96 1013.9
20260510133511 54 360 1.0 3.0 0.00 0.28 0.00 96 1013.7
20260510133013 54 360 0.0 4.0 0.00 0.28 0.00 96 1013.8
20260510132509 54 355 1.0 4.0 0.00 0.28 0.00 96 1013.9
20260510132008 53 350 1.0 4.0 0.00 0.28 0.00 96 1013.8
20260510131509 53 355 1.0 3.0 0.00 0.28 0.00 96 1013.9
20260510131007 53 355 1.0 4.0 0.00 0.28 0.00 96 1014.0
20260510130509 53 348 1.0 4.0 0.00 0.28 0.00 96 1014.0
20260510130009 52 347 0.0 4.0 0.00 0.28 0.00 96 1014.0
20260510125509 53 350 0.0 2.0 0.00 0.28 0.00 96 1014.0
20260510125005 53 350 0.0 3.0 0.00 0.28 0.00 96 1014.0
20260510124507 52 351 1.0 3.0 0.00 0.28 0.00 96 1013.9
20260510124003 52 351 0.0 2.0 0.00 0.28 0.00 96 1013.6
20260510123501 51 351 0.0 1.0 0.00 0.28 0.00 96 1013.6
20260510123001 51 350 0.0 1.0 0.00 0.28 0.00 96 1013.5
20260510122602 51 351 0.0 3.0 0.00 0.28 0.00 96 1013.3
20260510122100 51 351 1.0 3.0 0.00 0.28 0.00 96 1013.3
20260510121559 51 350 0.0 2.0 0.00 0.28 0.00 96 1013.3
20260510121059 51 351 0.0 2.0 0.00 0.28 0.00 96 1013.3
20260510120559 51 351 0.0 2.0 0.00 0.28 0.00 96 1013.2
20260510120057 50 350 0.0 2.0 0.00 0.28 0.00 96 1013.2
20260510115555 50 350 0.0 2.0 0.00 0.28 0.00 96 1013.1
20260510115055 50 350 0.0 1.0 0.00 0.28 0.00 96 1013.1
20260510114554 49 350 0.0 2.0 0.00 0.28 0.00 96 1013.0
20260510114054 49 351 0.0 3.0 0.00 0.28 0.00 96 1013.0
20260510113553 49 351 0.0 4.0 0.00 0.28 0.00 96 1012.7
20260510113053 49 350 1.0 4.0 0.00 0.28 0.00 96 1012.5
20260510112553 49 329 2.0 3.0 0.00 0.28 0.00 96 1012.5
20260510112054 49 327 1.0 3.0 0.00 0.28 0.00 96 1012.6
20260510111553 49 323 1.0 2.0 0.00 0.28 0.00 96 1012.7
20260510111052 49 323 0.0 2.0 0.00 0.28 0.00 96 1012.7
20260510110553 49 323 0.0 1.0 0.00 0.28 0.00 96 1012.7
20260510110052 49 323 0.0 0.0 0.00 0.28 0.00 96 1012.7
20260510105553 49 323 0.0 0.0 0.00 0.28 0.00 96 1012.6
20260510105052 49 323 0.0 2.0 0.00 0.28 0.00 96 1012.6
20260510104551 49 323 0.0 2.0 0.00 0.28 0.00 96 1012.6
20260510104050 49 323 0.0 2.0 0.00 0.28 0.00 96 1012.6
20260510103551 49 323 0.0 1.0 0.00 0.28 0.00 96 1012.6
20260510103058 48 323 0.0 1.0 0.00 0.28 0.00 96 1012.6
20260510102551 48 323 0.0 1.0 0.00 0.28 0.00 96 1012.4
20260510102049 48 323 0.0 3.0 0.00 0.28 0.00 96 1012.4
20260510101553 48 323 1.0 3.0 0.00 0.28 0.00 96 1012.2
20260510101048 48 323 1.0 2.0 0.00 0.28 0.00 96 1012.2
20260510100548 48 323 1.0 2.0 0.00 0.28 0.00 96 1012.1
20260510100048 48 323 0.0 2.0 0.00 0.28 0.00 96 1012.3
20260510095549 48 323 0.0 2.0 0.00 0.28 0.00 96 1012.3
20260510095048 48 323 0.0 2.0 0.00 0.28 0.00 96 1012.2
20260510094549 48 323 1.0 2.0 0.00 0.28 0.00 96 1012.2
20260510094048 48 323 0.0 1.0 0.00 0.28 0.00 96 1012.1
20260510093548 48 323 0.0 2.0 0.00 0.28 0.00 96 1012.3
20260510093048 48 323 1.0 3.0 0.00 0.28 0.00 96 1012.2
20260510092550 48 323 1.0 3.0 0.00 0.28 0.00 96 1012.2
20260510092048 48 323 1.0 3.0 0.00 0.28 0.00 96 1012.3
20260510091546 48 323 0.0 2.0 0.00 0.28 0.00 96 1012.3
20260510091046 49 323 0.0 2.0 0.00 0.28 0.00 96 1012.3
20260510090547 49 323 0.0 2.0 0.00 0.28 0.00 96 1012.4
20260510090050 49 322 0.0 2.0 0.00 0.28 0.00 96 1012.3
20260510085547 49 323 0.0 2.0 0.00 0.28 0.00 96 1012.4
20260510085045 49 323 1.0 3.0 0.00 0.28 0.00 96 1012.4
20260510084545 49 321 0.0 3.0 0.00 0.28 0.00 96 1012.4
20260510084046 49 321 1.0 3.0 0.00 0.28 0.00 96 1012.4
20260510083548 48 321 0.0 3.0 0.00 0.28 0.00 96 1012.4
20260510083045 48 321 1.0 3.0 0.00 0.28 0.00 96 1012.6
20260510082547 48 319 0.0 4.0 0.00 0.28 0.00 96 1012.5
20260510082045 48 315 1.0 4.0 0.00 0.28 0.00 96 1012.5
20260510081554 48 327 2.0 3.0 0.00 0.28 0.00 96 1012.6
20260510081044 48 325 1.0 6.0 0.00 0.28 0.00 96 1012.5
20260510080544 48 323 1.0 6.0 0.00 0.28 0.00 96 1012.4
20260510080049 48 19 2.0 5.0 0.00 0.28 0.00 96 1012.4
20260510075545 48 21 1.0 5.0 0.00 0.28 0.00 96 1012.3
20260510075042 48 15 1.0 6.0 0.00 0.28 0.00 96 1012.1
20260510074542 48 19 3.0 6.0 0.00 0.28 0.00 96 1012.3
20260510074040 48 80 0.0 0.0 0.00 0.28 0.00 96 1011.7
20260510073540 48 80 0.0 0.0 0.00 0.28 0.00 96 1011.6
20260510073040 48 80 0.0 0.0 0.00 0.28 0.00 96 1011.5
20260510072540 48 80 0.0 0.0 0.00 0.28 0.00 96 1011.5
20260510072042 48 80 0.0 0.0 0.00 0.28 0.00 96 1011.5
20260510071537 49 80 0.0 0.0 0.00 0.28 0.00 96 1011.5
20260510071037 49 80 0.0 0.0 0.00 0.28 0.00 96 1011.6
20260510070539 49 80 0.0 0.0 0.00 0.28 0.00 96 1011.7
20260510070043 49 80 0.0 1.0 0.00 0.28 0.00 96 1011.7
20260510065536 49 80 0.0 1.0 0.00 0.28 0.00 96 1011.6
20260510065035 49 80 0.0 0.0 0.00 0.28 0.00 96 1011.7
20260510064536 49 80 0.0 1.0 0.00 0.28 0.00 96 1011.8
20260510064035 49 80 0.0 1.0 0.00 0.28 0.00 96 1011.8
20260510063535 50 80 0.0 2.0 0.00 0.28 0.00 96 1011.8
20260510063035 50 80 0.0 2.0 0.00 0.28 0.00 96 1011.9
20260510062534 50 80 0.0 2.0 0.00 0.28 0.00 96 1012.0
20260510062034 50 80 0.0 2.0 0.00 0.28 0.00 96 1012.0
20260510061533 50 80 0.0 2.0 0.00 0.28 0.00 96 1011.9
20260510061037 50 80 0.0 0.0 0.00 0.28 0.00 96 1011.8
20260510060533 50 80 0.0 0.0 0.00 0.28 0.00 96 1011.8
20260510060034 50 80 0.0 2.0 0.00 0.28 0.00 95 1011.7
20260510055533 50 80 0.0 2.0 0.00 0.28 0.00 95 1011.5
20260510055032 50 80 0.0 4.0 0.00 0.28 0.00 96 1011.5
20260510054541 50 80 1.0 4.0 0.00 0.28 0.00 96 1011.5
20260510054031 50 80 0.0 4.0 0.00 0.28 0.00 96 1011.5
20260510053533 50 80 0.0 0.0 0.00 0.28 0.00 96 1011.6
20260510053031 50 80 0.0 0.0 0.00 0.28 0.00 96 1011.6
20260510052531 50 80 0.0 0.0 0.00 0.28 0.00 96 1011.5
20260510052031 50 80 0.0 0.0 0.00 0.28 0.00 96 1011.6
20260510051534 50 80 0.0 0.0 0.00 0.28 0.00 95 1011.7
20260510051030 50 80 0.0 0.0 0.00 0.28 0.00 96 1011.7
20260510050529 50 80 0.0 0.0 0.00 0.28 0.00 96 1011.7
20260510050029 50 80 0.0 0.0 0.00 0.28 0.00 96 1011.8
20260510045529 50 80 0.0 0.0 0.00 0.28 0.00 95 1011.7
20260510045029 50 80 0.0 0.0 0.00 0.28 0.00 95 1011.8
20260510044534 50 80 0.0 0.0 0.00 0.28 0.00 95 1011.8
20260510044027 50 80 0.0 0.0 0.00 0.28 0.00 95 1011.8
20260510043527 50 80 0.0 0.0 0.00 0.28 0.00 96 1011.8
20260510043027 50 80 0.0 0.0 0.00 0.28 0.00 96 1011.8
20260510042528 50 80 0.0 0.0 0.00 0.28 0.00 96 1011.8
20260510042025 50 80 0.0 0.0 0.00 0.28 0.00 96 1011.8
20260510041525 50 80 0.0 0.0 0.00 0.28 0.00 96 1011.9
20260510041025 50 80 0.0 0.0 0.00 0.28 0.00 96 1011.8
20260510040524 50 80 0.0 0.0 0.00 0.28 0.00 96 1011.9
20260510040024 50 80 0.0 0.0 0.00 0.28 0.00 96 1011.9
20260510035522 50 80 0.0 0.0 0.00 0.28 0.28 96 1011.8
20260510035023 50 80 0.0 2.0 0.00 0.28 0.28 95 1011.8
20260510034523 50 80 0.0 3.0 0.00 0.28 0.28 95 1011.8
20260510034022 50 80 1.0 3.0 0.00 0.28 0.28 96 1011.7
20260510033522 50 80 0.0 3.0 0.00 0.28 0.28 96 1011.6
20260510033023 50 80 0.0 2.0 0.00 0.28 0.28 96 1011.5
20260510032522 50 80 0.0 2.0 0.00 0.28 0.28 96 1011.5
20260510032022 50 80 0.0 3.0 0.00 0.28 0.28 96 1011.5
20260510031528 50 80 0.0 3.0 0.00 0.28 0.28 96 1011.6
20260510031022 50 80 1.0 3.0 0.00 0.28 0.28 96 1011.5
20260510030522 50 80 1.0 2.0 0.00 0.28 0.28 96 1011.6
20260510030023 50 80 0.0 2.0 0.00 0.28 0.28 96 1011.5
20260510025521 50 80 1.0 2.0 0.00 0.28 0.28 96 1011.5
20260510025021 51 80 1.0 2.0 0.00 0.28 0.28 96 1011.4
20260510024520 51 80 1.0 3.0 0.00 0.28 0.28 96 1011.4
20260510024022 51 80 1.0 3.0 0.00 0.28 0.28 96 1011.4
20260510023521 50 79 1.0 4.0 0.00 0.28 0.28 96 1011.4
20260510023020 50 80 1.0 4.0 0.00 0.28 0.28 96 1011.4
20260510022520 50 78 1.0 4.0 0.00 0.28 0.28 95 1011.4
20260510022021 50 78 0.0 2.0 0.00 0.28 0.28 96 1011.5
20260510021528 50 78 0.0 2.0 0.00 0.28 0.28 96 1011.5
20260510021019 50 78 0.0 2.0 0.00 0.28 0.28 96 1011.4
20260510020519 50 78 0.0 2.0 0.00 0.28 0.28 96 1011.4
20260510020020 50 78 0.0 2.0 0.00 0.28 0.28 96 1011.5
20260510015521 50 78 0.0 2.0 0.00 0.28 0.28 96 1011.5
20260510015019 50 78 0.0 2.0 0.00 0.28 0.28 96 1011.5
20260510014519 50 78 0.0 2.0 0.00 0.28 0.28 96 1011.6
20260510014019 50 78 1.0 2.0 0.00 0.28 0.28 96 1011.5
20260510013519 50 78 0.0 3.0 0.00 0.28 0.28 96 1011.4
20260510013019 50 78 0.0 3.0 0.00 0.28 0.28 96 1011.5
20260510012519 50 78 0.0 3.0 0.00 0.28 0.28 96 1011.5
20260510012019 50 78 1.0 3.0 0.00 0.28 0.28 96 1011.3
20260510011518 51 78 1.0 3.0 0.00 0.28 0.28 96 1011.4
20260510011019 51 78 0.0 3.0 0.00 0.28 0.28 96 1011.4
20260510010518 51 78 0.0 2.0 0.00 0.28 0.28 96 1011.5
20260510010020 51 78 0.0 2.0 0.00 0.28 0.28 96 1011.4
20260510005518 51 78 0.0 2.0 0.00 0.28 0.28 96 1011.2
20260510005017 51 78 0.0 2.0 0.00 0.28 0.28 96 1011.2
20260510004517 51 78 0.0 2.0 0.00 0.28 0.28 96 1011.1
20260510004017 51 78 0.0 2.0 0.00 0.28 0.28 96 1011.0
20260510003517 51 78 0.0 2.0 0.00 0.28 0.28 96 1010.9
20260510003017 51 78 0.0 3.0 0.00 0.28 0.28 96 1010.9
20260510002518 51 78 0.0 3.0 0.00 0.28 0.28 96 1010.8
20260510002017 51 78 0.0 2.0 0.00 0.28 0.28 96 1010.7
20260510001516 51 78 0.0 2.0 0.00 0.28 0.28 96 1010.7
20260510001016 51 78 0.0 2.0 0.00 0.28 0.28 96 1010.7
20260510000516 51 78 1.0 4.0 0.00 0.28 0.28 96 1010.7
20260510000020 51 78 1.0 4.0 0.00 0.28 0.28 96 1010.7
20260509235516 52 78 1.0 3.0 0.00 0.28 0.28 96 1010.8
20260509235016 52 78 0.0 4.0 0.00 0.28 0.28 96 1010.8
20260509234516 52 78 1.0 4.0 0.00 0.28 0.28 96 1010.9
20260509234016 52 78 1.0 4.0 0.00 0.28 0.28 96 1010.7
20260509233517 52 78 1.0 4.0 0.00 0.28 0.28 96 1010.7
20260509233017 52 77 1.0 3.0 0.00 0.28 0.28 96 1010.6
20260509232515 52 77 0.0 4.0 0.00 0.28 0.28 96 1010.7
20260509232015 52 76 0.0 5.0 0.00 0.28 0.28 97 1010.7
20260509231514 52 75 0.0 3.0 0.00 0.28 0.28 96 1010.6
20260509231014 52 75 1.0 3.0 0.00 0.28 0.28 96 1010.4
20260509230514 53 75 0.0 4.0 0.00 0.28 0.28 96 1010.4
20260509230015 53 75 0.0 5.0 0.00 0.28 0.28 97 1010.4
20260509225514 53 75 2.0 5.0 0.00 0.28 0.28 96 1010.5
20260509225013 53 76 1.0 5.0 0.00 0.28 0.28 97 1010.5
20260509224513 53 76 1.0 4.0 0.00 0.28 0.28 97 1010.6
20260509224013 53 76 0.0 4.0 0.00 0.28 0.28 97 1010.6
20260509223513 53 76 0.0 5.0 0.00 0.28 0.28 97 1010.6
20260509223018 53 74 0.0 5.0 0.00 0.28 0.28 97 1010.6
20260509222512 53 75 3.0 5.0 0.00 0.28 0.28 97 1010.6
20260509222016 54 70 1.0 5.0 0.00 0.28 0.28 97 1010.6
20260509221513 54 333 1.0 3.0 0.00 0.28 0.28 97 1010.6
20260509221012 55 334 0.0 2.0 0.00 0.28 0.28 97 1010.5
20260509220512 55 334 0.0 2.0 0.00 0.28 0.28 97 1010.6
20260509220013 54 334 0.0 2.0 0.00 0.28 0.28 97 1010.6
20260509215511 54 334 0.0 1.0 0.01 0.28 0.28 98 1010.5
20260509215013 55 333 0.0 2.0 0.01 0.28 0.28 98 1010.7
20260509214511 55 333 0.0 3.0 0.01 0.28 0.28 97 1010.7
20260509214010 55 333 0.0 3.0 0.01 0.28 0.28 97 1010.8
20260509213510 55 333 1.0 3.0 0.01 0.28 0.28 97 1010.7
20260509213011 55 340 0.0 2.0 0.02 0.28 0.28 96 1010.7
20260509212510 55 339 0.0 2.0 0.02 0.28 0.28 96 1010.7
20260509212010 55 337 0.0 2.0 0.02 0.28 0.28 95 1010.7
20260509211515 55 338 0.0 3.0 0.03 0.28 0.28 95 1010.7
20260509211012 54 338 0.0 3.0 0.03 0.28 0.28 96 1010.8
20260509210511 53 341 0.0 3.0 0.03 0.28 0.28 96 1010.7
20260509210011 52 341 0.0 3.0 0.05 0.28 0.28 96 1010.6
20260509205508 52 341 0.0 2.0 0.04 0.28 0.28 96 1010.6
20260509205010 52 341 0.0 2.0 0.04 0.28 0.28 96 1010.6
20260509204508 52 341 0.0 1.0 0.05 0.28 0.28 96 1010.8
20260509204012 52 341 0.0 3.0 0.06 0.28 0.28 96 1010.7
20260509203507 51 340 0.0 3.0 0.08 0.28 0.28 96 1010.7
20260509203011 51 333 0.0 3.0 0.08 0.27 0.27 96 1010.8
20260509202511 52 333 0.0 2.0 0.09 0.27 0.27 96 1010.8
20260509202007 52 333 0.0 2.0 0.09 0.27 0.27 96 1010.8
20260509201506 52 333 0.0 2.0 0.09 0.26 0.26 96 1010.7
20260509201006 52 333 0.0 4.0 0.09 0.26 0.26 96 1010.7
20260509200505 52 333 1.0 4.0 0.09 0.25 0.25 96 1010.8
20260509200007 52 334 0.0 3.0 0.08 0.24 0.24 96 1011.0
20260509195505 52 334 1.0 8.0 0.09 0.24 0.24 96 1011.0
20260509195003 52 334 2.0 8.0 0.10 0.24 0.24 96 1011.2
20260509194506 52 236 0.0 3.0 0.08 0.22 0.22 96 1011.3
20260509194005 52 236 0.0 5.0 0.09 0.22 0.22 96 1011.2
20260509193503 52 238 2.0 6.0 0.08 0.20 0.20 96 1011.5
20260509193006 52 320 1.0 5.0 0.09 0.19 0.19 96 1011.7
20260509192502 52 321 1.0 5.0 0.09 0.18 0.18 96 1011.7
20260509192002 52 326 1.0 5.0 0.10 0.18 0.18 96 1011.9
20260509191502 52 321 1.0 4.0 0.09 0.17 0.17 96 1011.9
20260509191001 52 329 0.0 4.0 0.10 0.17 0.17 96 1011.9
20260509190501 52 334 1.0 4.0 0.10 0.16 0.16 96 1011.9
20260509190001 52 355 0.0 3.0 0.10 0.16 0.16 96 1011.9
20260509185502 52 355 0.0 6.0 0.10 0.15 0.15 96 1012.0
20260509185002 52 360 1.0 5.0 0.09 0.14 0.14 97 1011.9
20260509184501 52 355 1.0 9.0 0.10 0.14 0.14 97 1011.9
20260509184100 52 355 2.0 8.0 0.09 0.13 0.13 97 1011.9
20260509183600 52 286 0.0 3.0 0.09 0.12 0.12 97 1012.0
20260509183100 52 284 0.0 4.0 0.08 0.10 0.10 97 1012.0
20260509182559 52 285 0.0 4.0 0.08 0.10 0.10 97 1011.9
20260509182059 52 288 0.0 3.0 0.07 0.08 0.08 97 1011.9
20260509181559 53 291 0.0 5.0 0.08 0.08 0.08 97 1012.0
20260509181059 53 291 1.0 5.0 0.07 0.07 0.07 97 1011.8
20260509180559 53 199 1.0 3.0 0.06 0.06 0.06 97 1011.6
20260509180058 53 216 0.0 5.0 0.06 0.06 0.06 97 1011.7
20260509175558 53 210 1.0 5.0 0.05 0.05 0.05 97 1011.6
20260509175058 53 46 1.0 4.0 0.05 0.05 0.05 97 1011.6
20260509174557 54 277 1.0 3.0 0.04 0.04 0.04 97 1011.8
20260509174056 54 277 1.0 2.0 0.04 0.04 0.04 97 1012.0
20260509173555 54 277 0.0 2.0 0.03 0.03 0.03 96 1012.3
20260509173118 54 276 0.0 2.0 0.02 0.02 0.02 96 1012.2
20260509172556 54 276 0.0 3.0 0.02 0.02 0.02 94 1012.2
20260509172055 55 277 2.0 5.0 0.01 0.01 0.01 93 1012.3
20260509171554 55 282 1.0 5.0 0.00 0.00 0.00 94 1012.4
20260509171053 56 277 0.0 2.0 0.00 0.00 0.00 95 1012.4
20260509170558 56 277 0.0 2.0 0.00 0.00 0.00 94 1012.3
20260509165553 57 275 1.0 6.0 0.00 0.00 0.00 91 1012.1
20260509165053 57 272 2.0 6.0 0.00 0.00 0.00 90 1012.1
20260509164558 57 249 1.0 4.0 0.00 0.00 0.00 90 1012.1
20260509164053 57 239 1.0 8.0 0.00 0.00 0.00 89 1012.2
20260509163552 57 277 2.0 8.0 0.00 0.00 0.00 88 1012.2
20260509163052 58 340 2.0 8.0 0.00 0.00 0.00 87 1012.3
20260509162552 58 184 1.0 4.0 0.00 0.00 0.00 89 1012.2
20260509162055 58 183 0.0 7.0 0.00 0.00 0.00 91 1012.2
20260509161550 57 182 1.0 9.0 0.00 0.00 0.00 90 1012.3
20260509161050 57 247 3.0 9.0 0.00 0.00 0.00 89 1012.3
20260509160550 57 264 2.0 6.0 0.00 0.00 0.00 88 1012.4
20260509160051 58 271 2.0 9.0 0.00 0.00 0.00 89 1012.4
20260509155550 58 268 1.0 9.0 0.00 0.00 0.00 89 1012.3
20260509155050 58 215 2.0 7.0 0.00 0.00 0.00 89 1012.4
20260509154549 58 144 2.0 7.0 0.00 0.00 0.00 90 1012.4
20260509154052 58 141 2.0 7.0 0.00 0.00 0.00 91 1012.3
20260509153551 57 130 1.0 3.0 0.00 0.00 0.00 91 1012.3
20260509153046 57 129 0.0 4.0 0.00 0.00 0.00 93 1012.3
20260509152646 56 130 0.0 4.0 0.00 0.00 0.00 91 1012.5
20260509152045 56 130 0.0 3.0 0.00 0.00 0.00 93 1012.6
20260509151555 56 130 0.0 4.0 0.00 0.00 0.00 93 1012.7
20260509151045 56 130 2.0 4.0 0.00 0.00 0.00 91 1012.5
20260509150542 56 116 1.0 3.0 0.00 0.00 0.00 92 1012.5
20260509150048 55 115 1.0 2.0 0.00 0.00 0.00 91 1012.6
20260509145542 55 116 0.0 2.0 0.00 0.00 0.00 93 1012.6
20260509145040 55 116 0.0 2.0 0.00 0.00 0.00 93 1012.6
20260509144540 55 115 0.0 1.0 0.00 0.00 0.00 93 1012.5
20260509144042 54 116 0.0 4.0 0.00 0.00 0.00 94 1012.5
20260509143538 54 116 0.0 4.0 0.00 0.00 0.00 92 1012.6
20260509143044 54 115 1.0 3.0 0.00 0.00 0.00 91 1012.6
20260509142539 54 115 0.0 3.0 0.00 0.00 0.00 90 1012.6